1499576401.19,21802,16.94,74126.5,4.33,1.75,1.37,0,*76
1499576402.4,21803,16.94,74124.8,4.33,1.37,1.01,0,*74
1499576403.66,21804,16.94,74124.3,4.31,1.21,0.91,0,*4E
1499576404.89,21805,16.94,74124.0,4.31,0.97,0.87,0,*74
1499576406.13,21806,16.94,74124.0,4.33,1.13,1.37,0,*72
1499576407.31,21807,16.94,74124.0,4.33,1.41,1.75,0,*72
1499576408.51,21808,16.94,74128.5,4.33,1.41,1.93,0,*75
1499576409.78,21809,16.94,74124.8,4.31,1.29,1.85,0,*7F
1499576410.99,21810,16.94,74124.3,4.33,1.21,1.75,0,*72
1499576412.21,21811,16.94,74122.0,4.33,1.21,1.83,0,*7A
1499576413.44,21812,16.94,74126.8,4.31,1.25,1.83,0,*7F
1499576414.69,21813,16.94,74124.3,4.31,1.47,1.97,0,*7F
1499576415.92,21814,16.94,74124.0,4.33,1.59,2.05,0,*7D
1499576417.17,21815,16.94,74126.5,4.31,1.93,2.09,0,*74
1499576418.43,21816,16.94,74124.5,4.31,2.13,2.21,0,*76
1499576419.68,21817,16.94,74122.0,4.31,2.25,2.21,0,*72
1499576420.88,21818,16.94,74122.3,4.33,2.47,2.31,0,*7A
1499576422.11,21819,16.94,74122.8,4.31,2.31,2.09,0,*73
1499576423.37,21820,16.94,74122.3,4.31,2.43,2.13,0,*77
1499576424.58,21821,16.94,74120.5,4.29,2.27,2.01,0,*7E
1499576425.8,21822,16.94,74126.8,4.29,2.21,2.05,0,*7F
1499576427.03,21823,16.94,74124.8,4.29,2.09,2.09,0,*78
1499576428.26,21824,16.94,74126.0,4.29,1.93,1.93,0,*7F
1499576429.48,21825,16.94,74126.8,4.29,1.89,2.01,0,*7D
1499576430.71,21826,16.94,74126.0,4.27,2.05,2.05,0,*73
1499576431.93,21827,16.94,74124.0,4.27,2.05,2.05,0,*72
1499576433.15,21828,16.94,74130.0,4.27,2.01,2.05,0,*79
1499576434.37,21829,16.94,74128.0,4.29,2.09,2.21,0,*78
1499576435.57,21830,16.94,74128.0,4.27,2.13,2.27,0,*73
1499576436.77,21831,16.94,74128.5,4.27,2.27,2.47,0,*73
1499576437.97,21832,16.94,74128.5,4.27,2.27,2.51,0,*77
1499576439.18,21833,16.94,74126.8,4.29,2.31,2.43,0,*7C
1499576440.41,21834,16.94,74128.3,4.29,2.39,2.55,0,*74
1499576441.64,21835,16.94,74128.8,4.29,2.43,2.51,0,*7C
1499576442.85,21836,16.94,74128.3,4.29,2.27,2.21,0,*7A
1499576444.08,21837,16.94,74130.3,4.29,2.21,2.17,0,*78
1499576445.3,21838,16.94,74130.0,4.29,2.21,2.09,0,*78
1499576446.54,21839,16.94,74126.8,4.29,2.17,2.01,0,*74
1499576447.77,21840,16.94,74128.8,4.29,2.17,2.01,0,*7A
1499576449.0,21841,16.94,74128.0,4.27,2.13,1.85,0,*7E
1499576450.2,21842,16.94,74130.3,4.29,1.93,1.79,0,*7B
1499576451.4,21843,16.94,74124.0,4.27,1.79,1.47,0,*7D
1499576452.62,21844,16.94,74126.0,4.29,1.89,1.67,0,*79
1499576453.82,21845,16.94,74124.8,4.27,1.79,1.63,0,*7D
1499576455.01,21846,16.94,74126.5,4.27,1.75,1.67,0,*76
1499576456.24,21847,16.94,74126.5,4.29,1.71,1.67,0,*7D
1499576457.46,21848,16.94,74130.8,4.29,1.59,1.55,0,*79
1499576458.69,21849,16.94,74126.5,4.27,1.85,1.55,0,*77
1499576459.88,21850,16.94,74122.5,4.27,1.75,1.29,0,*7B
1499576461.11,21851,16.94,74120.8,4.27,1.33,0.71,0,*44
1499576462.35,21852,16.94,74122.0,4.25,1.67,0.67,0,*43
1499576463.59,21853,16.94,74122.0,4.25,1.51,0.29,0,*4D
1499576464.83,21854,16.94,74126.0,4.25,1.67,0.55,0,*44
1499576466.08,21855,16.94,74122.3,4.25,1.55,0.33,0,*44
1499576467.28,21856,16.94,74126.3,4.23,1.51,-0.19,0,*60
1499576468.49,21857,16.94,74124.0,4.23,1.37,-0.61,0,*6E
1499576469.72,21858,16.94,74124.8,4.23,1.13,-0.93,0,*6A
1499576470.92,21859,16.94,74126.8,4.23,0.75,-1.21,0,*62
1499576472.12,21860,16.94,74124.3,4.23,0.05,-1.47,0,*5F
1499576473.33,21861,16.94,74130.5,4.23,0.13,-0.85,0,*56
1499576474.54,21862,16.94,74126.0,4.21,0.37,-0.81,0,*55
1499576475.77,21863,16.94,74126.3,4.21,0.29,-0.49,0,*5F
1499576476.98,21864,16.94,74128.3,4.21,-0.11,-0.73,0,*77
1499576478.22,21865,16.94,74122.3,4.19,-1.01,-1.35,0,*7E
1499576479.43,21866,16.94,74128.3,4.19,-1.71,-1.35,0,*7A
1499576480.65,21867,16.94,74126.8,4.19,-1.87,-0.41,0,*40
1499576481.85,21868,16.94,74126.0,4.19,-1.51,0.87,0,*63
1499576483.02,21869,16.94,74114.3,4.19,-0.33,1.79,0,*67
1499576484.23,21870,16.94,74114.8,4.19,0.71,2.21,0,*4A
1499576485.44,21871,16.94,74116.0,4.19,1.37,2.31,0,*79
1499576486.66,21872,16.94,74118.5,4.21,1.63,2.31,0,*70
1499576487.88,21873,16.94,74118.3,4.21,1.93,2.31,0,*7E
1499576489.13,21874,16.94,74118.8,4.21,2.09,2.47,0,*78
1499576490.39,21875,16.94,74118.3,4.21,2.13,2.47,0,*72
1499576491.61,21876,16.94,74118.0,4.21,2.31,2.59,0,*7E
1499576492.82,21877,16.94,74122.8,4.19,2.65,2.81,0,*70
1499576494.07,21878,16.94,74126.3,4.21,2.69,2.85,0,*7C
1499576495.3,21879,16.94,74130.0,4.21,2.43,2.65,0,*7B
1499576496.52,21880,16.94,74120.3,4.19,2.21,2.39,0,*7B
1499576497.77,21881,16.94,74116.5,4.21,2.21,2.47,0,*78
1499576499.0,21882,16.94,74120.5,4.23,2.13,2.43,0,*7C
1499576500.19,21883,16.94,74124.0,4.23,2.25,2.35,0,*79
1499576501.41,21884,16.94,74120.8,4.21,2.21,2.35,0,*78
1499576502.64,21885,16.94,74116.0,4.21,2.13,2.31,0,*7C
1499576503.86,21886,16.94,74116.8,4.21,2.25,2.35,0,*7E
1499576505.11,21887,16.94,74122.0,4.21,2.47,2.59,0,*71
1499576506.37,21888,16.94,74122.5,4.21,2.47,2.55,0,*72
1499576507.62,21889,16.94,74122.3,4.21,2.13,2.13,0,*70
1499576508.87,21890,16.94,74128.5,4.21,2.43,2.25,0,*78
1499576510.1,21891,16.88,74118.8,4.19,2.39,2.05,0,*7D
1499576511.35,21892,16.88,74118.8,4.21,2.09,1.71,0,*76
1499576512.57,21893,16.94,74122.8,4.19,2.05,1.67,0,*77
1499576513.79,21894,16.94,74124.5,4.19,2.17,1.71,0,*74
1499576514.96,21895,16.94,74122.5,4.19,1.83,1.41,0,*78
1499576516.18,21896,16.94,74118.0,4.21,1.41,1.13,0,*79
1499576517.4,21897,16.94,74118.3,4.19,0.87,0.95,0,*77
1499576518.64,21898,16.94,74120.8,4.21,0.67,1.09,0,*49
1499576519.88,21899,16.94,74126.8,4.21,0.41,1.13,0,*47
1499576521.1,21900,16.94,74122.0,4.19,0.21,1.33,0,*49
1499576522.33,21901,16.94,74120.5,4.21,0.29,1.47,0,*48
1499576523.56,21902,16.94,74116.3,4.21,0.37,1.59,0,*4B
1499576524.8,21903,16.94,74116.8,4.21,0.41,1.51,0,*43
1499576526.04,21904,16.94,74118.0,4.21,0.75,1.59,0,*4B
1499576527.24,21905,16.94,74122.0,4.21,1.01,1.75,0,*76
1499576528.47,21906,16.94,74120.8,4.19,1.21,1.71,0,*78
1499576529.71,21907,16.94,74122.0,4.21,1.37,1.83,0,*78
1499576530.95,21908,16.94,74118.5,4.21,1.51,1.93,0,*76
1499576532.15,21909,16.94,74120.0,4.23,1.75,2.01,0,*7B
1499576533.37,21910,16.94,74116.8,4.23,1.63,1.93,0,*7C
1499576534.58,21911,16.94,74116.5,4.23,1.63,1.83,0,*7C
1499576535.77,21912,16.94,74122.5,4.23,1.59,1.75,0,*7F
1499576537.02,21913,16.94,74124.8,4.25,1.43,1.63,0,*74
1499576538.27,21914,16.94,74122.8,4.25,1.33,1.63,0,*74
1499576539.52,21915,16.94,74124.3,4.25,1.13,1.43,0,*75
1499576540.74,21916,16.94,74124.8,4.25,1.01,1.43,0,*75
1499576541.96,21917,16.94,74122.8,4.25,1.05,1.43,0,*70
1499576543.18,21918,16.94,74122.3,4.25,1.29,1.41,0,*73
1499576544.43,21919,16.94,74126.5,4.25,1.33,1.43,0,*7B
1499576545.62,21920,16.94,74124.8,4.25,1.41,1.41,0,*76
1499576546.81,21921,16.94,74126.5,4.25,1.41,1.41,0,*77
1499576548.05,21922,16.94,74126.0,4.25,1.43,1.43,0,*74
1499576549.27,21923,16.94,74124.5,4.27,1.51,1.51,0,*77
1499576550.49,21924,16.94,74124.8,4.27,1.43,1.51,0,*73
1499576551.71,21925,16.94,74128.8,4.29,1.43,1.67,0,*79
1499576552.95,21926,16.94,74124.3,4.29,1.37,1.67,0,*79
1499576554.17,21927,16.94,74126.8,4.29,1.43,1.89,0,*7B
1499576555.38,21928,16.94,74126.8,4.29,1.37,1.83,0,*7D
1499576556.62,21929,16.94,74126.0,4.29,1.33,2.01,0,*71
1499576557.85,21930,16.94,74126.3,4.29,1.43,2.09,0,*76
1499576559.07,21931,16.94,74126.0,4.29,1.47,2.21,0,*79
1499576560.28,21932,16.94,74126.0,4.29,1.79,2.43,0,*73
1499576561.52,21933,16.94,74124.8,4.31,1.93,2.65,0,*7B
1499576562.75,21934,16.94,74128.0,4.33,2.05,2.69,0,*7E
1499576563.98,21935,16.94,74130.3,4.33,2.21,2.81,0,*7F
1499576565.18,21936,16.94,74124.5,4.33,1.85,2.31,0,*7A
1499576566.41,21937,16.94,74128.3,4.33,1.97,2.25,0,*7D
1499576567.66,21938,16.94,74128.5,4.31,2.09,2.21,0,*70
1499576568.87,21939,16.94,74128.0,4.33,2.35,2.55,0,*7F
1499576570.04,21940,16.94,74128.8,4.33,2.31,2.31,0,*77
1499576571.27,21941,16.94,74128.5,4.31,2.35,2.25,0,*75
1499576572.5,21942,16.94,74130.8,4.31,2.31,2.25,0,*72
1499576573.71,21943,16.94,74128.5,4.33,2.31,2.25,0,*71
1499576574.88,21944,16.94,74124.5,4.33,2.35,2.31,0,*77
1499576576.08,21945,16.94,74126.5,4.33,2.35,2.25,0,*73
1499576577.34,21946,16.94,74124.3,4.31,2.13,2.05,0,*74
1499576578.6,21947,16.94,74126.8,4.31,2.09,2.13,0,*79
1499576579.79,21948,16.94,74124.8,4.33,2.21,2.35,0,*7A
1499576581.05,21949,16.94,74124.8,4.31,2.21,2.55,0,*7F
1499576582.28,21950,16.94,74122.3,4.33,2.13,2.77,0,*74
1499576583.51,21951,16.94,74116.0,4.33,2.13,2.81,0,*7C
1499576584.74,21952,16.94,74114.0,4.35,2.39,2.99,0,*78
1499576585.99,21953,16.94,74110.8,4.35,2.51,3.07,0,*71
1499576587.24,21954,16.94,74112.0,4.39,2.69,3.11,0,*76
1499576588.46,21955,16.94,74112.8,4.39,2.69,2.99,0,*76
1499576589.71,21956,16.94,74112.0,4.39,2.73,2.89,0,*7F
1499576590.95,21957,16.94,74114.3,4.39,2.69,2.69,0,*7B
1499576592.16,21958,16.94,74112.0,4.43,2.65,2.65,0,*79
1499576593.36,21959,16.94,74116.0,4.43,2.31,2.35,0,*7C
1499576594.58,21960,16.94,74118.0,4.41,2.25,2.21,0,*74
1499576595.83,21961,16.94,74116.0,4.43,2.25,2.47,0,*77
1499576597.08,21962,16.94,74116.5,4.43,2.47,2.81,0,*7A
1499576598.31,21963,16.94,74116.5,4.43,2.59,2.91,0,*75
1499576599.51,21964,16.94,74118.3,4.45,2.69,2.91,0,*77
1499576600.73,21965,16.94,74118.3,4.45,2.69,2.85,0,*73
1499576601.93,21966,16.94,74114.3,4.45,2.65,2.69,0,*7E
1499576603.15,21967,16.94,74112.5,4.45,2.69,2.69,0,*73
1499576604.41,21968,16.94,74114.3,4.47,2.69,2.81,0,*78
1499576605.63,21969,16.94,74112.8,4.47,2.61,2.69,0,*77
1499576606.87,21970,16.94,74114.3,4.47,2.59,2.61,0,*7C
1499576608.1,21971,16.94,74116.5,4.47,2.47,2.61,0,*72
1499576609.36,21972,16.94,74118.5,4.47,2.39,2.51,0,*7B
1499576610.56,21973,16.94,74116.0,4.47,2.35,2.27,0,*77
1499576611.79,21974,16.94,74114.0,4.49,2.21,2.25,0,*79
1499576613.02,21975,16.94,74112.8,4.49,2.01,2.09,0,*74
1499576614.25,21976,16.94,74112.8,4.47,2.27,2.25,0,*73
1499576615.48,21977,16.94,74112.8,4.45,2.25,2.17,0,*73
1499576616.73,21978,16.94,74118.5,4.47,2.25,1.85,0,*76
1499576617.95,21979,16.94,74112.8,4.45,2.25,1.63,0,*7D
1499576619.2,21980,16.94,74112.3,4.47,2.39,1.55,0,*71
1499576620.45,21981,16.94,74112.5,4.47,2.25,1.25,0,*7A
1499576621.68,21982,16.94,74114.3,4.47,2.21,1.01,0,*7B
1499576622.89,21983,16.94,74114.5,4.45,2.13,0.67,0,*48
1499576624.14,21984,16.94,74116.5,4.47,1.55,0.17,0,*4B
1499576625.39,21985,16.94,74114.3,4.47,1.13,-0.11,0,*63
1499576626.61,21986,16.88,74114.0,4.47,0.41,-0.53,0,*50
1499576627.8,21987,16.94,74118.0,4.47,0.05,-0.53,0,*61
1499576629.03,21988,16.94,74114.0,4.47,-0.45,-0.23,0,*70
1499576630.25,21989,16.94,74108.0,4.47,-0.93,0.09,0,*6F
1499576631.51,21990,16.88,74106.0,4.47,-1.05,0.67,0,*61
1499576632.74,21991,16.94,74112.0,4.47,-0.81,1.37,0,*69
1499576633.94,21992,16.94,74108.3,4.45,-0.69,1.63,0,*6F
1499576635.12,21993,16.94,74114.5,4.45,-0.33,1.75,0,*66
1499576636.31,21994,16.94,74110.5,4.45,0.13,1.75,0,*4E
1499576637.55,21995,16.94,74110.5,4.47,0.55,1.67,0,*4C
1499576638.78,21996,16.94,74108.8,4.47,1.05,1.67,0,*7B
1499576640.01,21997,16.94,74114.0,4.45,1.25,1.51,0,*7F
1499576641.26,21998,16.94,74114.8,4.47,1.63,1.63,0,*71
1499576642.5,21999,16.94,74122.3,4.47,1.67,1.63,0,*74
1499576643.71,22000,16.94,74124.3,4.45,1.63,1.75,0,*7F
1499576644.95,22001,16.94,74120.3,4.47,1.67,1.97,0,*74
1499576646.2,22002,16.94,74112.5,4.47,1.97,2.21,0,*76
1499576647.41,22003,16.94,74114.0,4.47,2.27,2.27,0,*79
1499576648.66,22004,16.94,74114.8,4.47,2.13,2.21,0,*7F
1499576649.88,22005,16.94,74112.5,4.45,2.05,2.17,0,*7E
1499576651.12,22006,16.94,74110.3,4.45,1.97,2.17,0,*75
1499576652.34,22007,16.94,74112.0,4.45,2.09,2.25,0,*71
1499576653.57,22008,16.94,74116.3,4.43,1.75,1.93,0,*7E
1499576654.79,22009,16.94,74114.0,4.43,1.83,1.93,0,*76
1499576656.03,22010,16.94,74112.3,4.43,1.93,1.93,0,*7F
1499576657.22,22011,16.94,74112.5,4.41,1.83,1.89,0,*76
1499576658.42,22012,16.94,74112.8,4.41,2.31,2.21,0,*7E
1499576659.62,22013,16.94,74114.3,4.41,2.43,2.31,0,*7B
1499576660.82,22014,16.94,74110.5,4.41,2.39,2.31,0,*71
1499576662.02,22015,16.94,74112.3,4.41,2.39,2.27,0,*77
1499576663.27,22016,16.94,74112.0,4.43,2.55,2.43,0,*7E
1499576664.45,22017,16.94,74118.0,4.41,2.65,2.65,0,*7A
1499576665.68,22018,16.94,74116.0,4.41,2.77,2.77,0,*75
1499576666.9,22019,16.94,74116.0,4.43,2.65,2.69,0,*7A
1499576668.12,22020,16.94,74116.8,4.41,2.77,2.85,0,*73
1499576669.37,22021,16.94,74114.8,4.43,2.55,2.47,0,*7E
1499576670.6,22022,16.94,74118.3,4.45,2.59,2.47,0,*77
1499576671.82,22023,16.94,74118.3,4.45,2.69,2.43,0,*71
1499576673.05,22024,16.94,74118.0,4.45,2.81,2.47,0,*74
1499576674.27,22025,16.94,74116.5,4.43,2.81,2.31,0,*72
1499576675.52,22026,16.94,74112.8,4.43,2.89,2.09,0,*72
1499576676.75,22027,16.94,74108.8,4.45,2.47,1.37,0,*79
1499576677.99,22028,16.88,74102.5,4.43,2.05,0.79,0,*4D
1499576679.19,22029,16.94,74104.5,4.41,1.83,0.63,0,*48
1499576680.39,22030,16.88,74102.5,4.45,1.85,0.97,0,*49
1499576681.62,22031,16.94,74098.0,4.45,1.85,1.21,0,*74
1499576682.82,22032,16.94,74096.8,4.45,1.75,1.13,0,*79
1499576684.02,22033,16.94,74098.8,4.45,1.83,0.87,0,*4D
1499576685.27,22034,16.88,74092.8,4.47,1.89,0.55,0,*4D
1499576686.49,22035,16.94,74100.0,4.45,2.05,0.75,0,*4B
1499576687.74,22036,16.94,74096.8,4.47,1.97,0.17,0,*46
1499576688.97,22037,16.94,74100.0,4.47,1.63,-0.19,0,*6F
1499576690.22,22038,16.94,74102.3,4.47,1.51,-0.23,0,*68
1499576691.41,22039,16.94,74102.3,4.49,1.05,-0.81,0,*6E
1499576692.63,22040,16.94,74110.0,4.49,0.29,-1.43,0,*60
1499576693.85,22041,16.88,74110.3,4.51,-0.37,-1.67,0,*4C
1499576695.07,22042,16.94,74110.5,4.49,-1.05,-1.51,0,*73
1499576696.3,22043,16.94,74116.5,4.51,-1.13,-0.77,0,*49
1499576697.49,22044,16.94,74118.5,4.49,-1.17,-0.29,0,*48
1499576698.72,22045,16.94,74110.8,4.51,-1.01,0.09,0,*58
1499576699.93,22046,16.94,74120.8,4.51,-0.61,0.83,0,*5E
1499576701.12,22047,16.94,74118.8,4.49,-0.41,1.01,0,*6F
1499576702.29,22048,16.94,74118.3,4.53,-0.15,1.41,0,*6E
1499576703.5,22049,16.94,74118.5,4.53,0.33,1.67,0,*42
1499576704.74,22050,16.94,74114.0,4.55,0.47,1.71,0,*48
1499576706.0,22051,16.94,74112.3,4.55,1.13,2.17,0,*7A
1499576707.26,22052,16.88,74114.3,4.55,1.59,2.17,0,*77
1499576708.48,22053,16.94,74120.3,4.57,1.67,2.01,0,*7E
1499576709.68,22054,16.94,74120.8,4.57,1.75,2.01,0,*7A
1499576710.9,22055,16.94,74124.8,4.57,1.51,1.47,0,*7C
1499576712.13,22056,16.88,74120.0,4.61,2.01,1.67,0,*7E
1499576713.36,22057,16.94,74120.5,4.61,1.85,1.25,0,*76
1499576714.56,22058,16.88,74118.8,4.57,1.79,0.75,0,*4B
1499576715.78,22059,16.94,74122.0,4.57,1.67,0.29,0,*4C
1499576717.0,22060,16.94,74120.0,4.61,1.37,-0.19,0,*68
1499576718.21,22061,16.94,74120.0,4.57,1.13,-0.29,0,*69
1499576719.41,22062,16.94,74122.0,4.57,0.79,-0.33,0,*5C
1499576720.57,22063,16.94,74122.5,4.57,0.43,-0.29,0,*5F
1499576721.79,22064,16.88,74120.5,4.55,0.25,-0.45,0,*50
1499576723.0,22065,16.88,74118.3,4.55,-0.49,-0.73,0,*73
1499576724.18,22066,16.94,74120.3,4.53,-0.73,-0.61,0,*7C
1499576725.34,22067,16.88,74118.5,4.53,0.01,-0.07,0,*55
1499576726.54,22068,16.94,74116.5,4.53,0.21,0.09,0,*4B
1499576727.73,22069,16.94,74118.8,4.53,-0.15,0.25,0,*5E
1499576728.96,22070,16.94,74118.0,4.55,-0.15,1.21,0,*65
1499576730.21,22071,16.88,74116.5,4.55,-0.23,1.71,0,*64
1499576731.42,22072,16.88,74114.3,4.57,0.21,2.09,0,*46
1499576732.63,22073,16.94,74118.0,4.61,1.01,2.39,0,*72
1499576733.86,22074,16.94,74116.5,4.57,1.67,2.81,0,*73
1499576735.07,22075,16.94,74116.8,4.57,1.75,2.39,0,*72
1499576736.27,22076,16.94,74116.8,4.61,2.35,2.73,0,*7D
1499576737.5,22077,16.94,74116.8,4.63,2.61,2.77,0,*7B
1499576738.73,22078,16.94,74112.3,4.61,2.81,2.73,0,*7C
1499576739.96,22079,16.94,74114.3,4.61,2.59,2.47,0,*7F
1499576741.22,22080,16.94,74114.5,4.63,2.55,2.43,0,*73
1499576742.45,22081,16.94,74116.3,4.63,2.51,2.35,0,*77
1499576743.68,22082,16.88,74114.5,4.63,2.51,2.27,0,*77
1499576744.94,22083,16.94,74118.8,4.63,2.17,2.13,0,*73
1499576746.14,22084,16.88,74114.0,4.65,1.83,2.17,0,*78
1499576747.36,22085,16.94,74116.8,4.65,1.89,2.77,0,*75
1499576748.56,22086,16.94,74118.8,4.65,2.13,2.99,0,*76
1499576749.76,22087,16.94,74116.5,4.65,2.35,3.07,0,*75
1499576751.01,22088,16.94,74118.3,4.67,2.55,3.19,0,*71
1499576752.26,22089,16.88,74116.5,4.67,2.77,3.03,0,*7B
1499576753.49,22090,16.94,74114.0,4.67,2.99,2.77,0,*71
1499576754.7,22091,16.94,74112.0,4.69,2.91,2.43,0,*71
1499576755.93,22092,16.94,74114.3,4.69,2.59,1.85,0,*7F
1499576757.15,22093,16.94,74110.0,4.69,2.21,1.13,0,*7E
1499576758.37,22094,16.94,74110.3,4.69,1.51,0.67,0,*4F
1499576759.6,22095,16.88,74112.8,4.69,1.29,0.51,0,*44
1499576760.8,22096,16.94,74116.8,4.69,1.01,0.51,0,*4D
1499576762.02,22097,16.94,74114.5,4.69,1.25,0.95,0,*42
1499576763.28,22098,16.88,74114.8,4.67,1.37,0.87,0,*43
1499576764.48,22099,16.94,74118.5,4.69,0.97,0.37,0,*7C
1499576765.69,22100,16.88,74110.8,4.69,0.55,0.17,0,*71
1499576766.91,22101,16.88,74108.5,4.69,0.21,0.21,0,*76
1499576768.1,22102,16.94,74108.0,4.69,0.41,-0.07,0,*6A
1499576769.32,22103,16.88,74106.8,4.69,-0.23,-0.85,0,*78
1499576770.53,22104,16.94,74106.3,4.69,-0.85,-1.29,0,*44
1499576771.74,22105,16.94,74102.8,4.73,-0.69,-1.43,0,*40
1499576772.93,22106,16.94,74102.3,4.73,-0.69,-1.79,0,*4A
1499576774.15,22107,16.88,74100.5,4.73,-1.17,-2.55,0,*7E
1499576775.37,22108,16.94,74102.0,4.73,-1.05,-2.43,0,*75
1499576776.58,22109,16.88,74102.5,4.73,-1.05,-2.27,0,*76
1499576777.78,22110,16.88,74106.3,4.73,-1.17,-2.23,0,*79
1499576778.99,22111,16.94,74108.0,4.73,-1.63,-2.51,0,*7E
1499576780.18,22112,16.94,74106.3,4.73,-1.55,-2.27,0,*79
1499576781.36,22113,16.94,74106.8,4.73,-1.63,-2.15,0,*7C
1499576782.55,22114,16.88,74104.0,4.73,-1.51,-1.79,0,*73
1499576783.73,22115,16.94,74106.3,4.77,-1.51,-1.33,0,*78
1499576784.97,22116,16.94,74110.3,4.75,-1.91,-1.29,0,*7E
1499576786.22,22117,16.94,74110.3,4.79,-1.95,-0.85,0,*40
1499576787.43,22118,16.88,74104.8,4.77,-2.11,-0.65,0,*40
1499576788.62,22119,16.94,74108.8,4.81,-2.19,-0.33,0,*43
1499576789.86,22120,16.88,74108.0,4.79,-2.47,-0.57,0,*47
1499576791.07,22121,16.88,74108.5,4.81,-2.71,-0.33,0,*46
1499576792.27,22122,16.88,74108.5,4.85,-2.51,-0.03,0,*70
1499576793.5,22123,16.94,74110.8,4.87,-2.31,0.33,0,*6B
1499576794.73,22124,16.94,74108.5,4.87,-2.43,0.37,0,*6D
1499576795.96,22125,16.88,74108.3,4.87,-2.39,0.47,0,*66
1499576797.18,22126,16.94,74112.3,4.89,-2.11,0.95,0,*6E
1499576798.35,22127,16.88,74108.8,4.89,-2.15,0.97,0,*69
1499576799.58,22128,16.88,74104.8,4.91,-1.67,1.37,0,*52
1499576800.83,22129,16.94,74110.0,4.91,-1.35,1.71,0,*56
1499576802.06,22130,16.94,74110.8,4.95,-1.01,1.89,0,*5A
1499576803.27,22131,16.88,74104.3,4.95,-0.69,2.13,0,*64
1499576804.5,22132,16.88,74106.5,4.97,-0.45,2.13,0,*6B
1499576805.7,22133,16.94,74110.3,4.99,-0.37,2.05,0,*66
1499576806.91,22134,16.88,74108.5,4.99,-0.15,1.93,0,*6D
1499576808.09,22135,16.94,74114.3,4.99,0.33,2.31,0,*4E
1499576809.31,22136,16.88,74108.3,5.01,0.75,2.65,0,*4E
1499576810.56,22137,16.88,74110.5,5.01,0.29,1.85,0,*4B
1499576811.78,22138,16.88,74108.5,5.03,0.51,1.93,0,*4E
1499576813.01,22139,16.94,74110.8,5.01,0.75,1.97,0,*4F
1499576814.26,22140,16.94,74114.3,5.01,0.79,1.71,0,*45
1499576815.5,22141,16.94,74114.0,5.01,0.87,1.51,0,*47
1499576816.75,22142,16.88,74114.3,5.01,1.25,1.63,0,*7C
1499576818.01,22143,16.94,74112.8,5.01,1.09,1.29,0,*7D
1499576819.24,22144,16.88,74114.0,4.99,1.25,1.25,0,*78
1499576820.48,22145,16.94,74114.5,4.97,0.79,0.67,0,*78
1499576821.7,22146,16.88,74114.8,4.99,0.75,0.47,0,*7B
1499576822.94,22147,16.94,74114.5,4.97,0.71,0.41,0,*76
1499576824.18,22148,16.88,74114.3,4.97,0.71,0.47,0,*7F
1499576825.42,22149,16.94,74114.8,4.97,0.71,0.59,0,*71
1499576826.66,22150,16.88,74112.5,4.97,0.55,0.67,0,*72
1499576827.9,22151,16.94,74112.3,4.97,0.67,1.17,0,*44
1499576829.12,22152,16.88,74108.8,4.99,0.83,1.67,0,*44
1499576830.39,22153,16.94,74114.3,4.97,1.13,2.17,0,*77
1499576831.64,22154,16.94,74110.8,4.97,1.43,2.77,0,*73
1499576832.82,22155,16.88,74110.3,4.99,1.83,2.99,0,*70
1499576834.04,22156,16.88,74112.8,4.99,2.21,3.11,0,*79
1499576835.3,22157,16.88,74108.5,5.01,2.25,2.77,0,*7D
1499576836.54,22158,16.94,74110.8,5.01,2.21,2.59,0,*7A
1499576837.79,22159,16.94,74112.3,5.01,2.47,2.85,0,*7A
1499576839.04,22160,16.88,74108.8,5.01,2.69,2.85,0,*7C
1499576840.24,22161,16.88,74112.3,5.01,2.91,2.95,0,*7B
1499576841.49,22162,16.88,74110.5,5.01,2.85,2.85,0,*7C
1499576842.69,22163,16.88,74110.8,5.01,2.91,2.91,0,*7D
1499576843.92,22164,16.94,74114.3,5.01,2.91,2.85,0,*7F
1499576845.12,22165,16.88,74116.0,5.01,2.95,2.91,0,*7F
1499576846.37,22166,16.88,74116.0,5.01,2.69,2.59,0,*7B
1499576847.57,22167,16.94,74116.5,5.01,2.31,2.31,0,*79
1499576848.77,22168,16.94,74116.5,4.99,1.93,1.79,0,*72
1499576850.0,22169,16.88,74116.0,4.97,2.27,2.17,0,*7A
1499576851.25,22170,16.94,74120.0,4.97,1.89,1.51,0,*74
1499576852.5,22171,16.94,74120.8,4.97,2.13,1.85,0,*7C
1499576853.73,22172,16.94,74122.8,4.95,1.93,1.63,0,*7E
1499576854.94,22173,16.94,74120.8,4.95,2.13,1.79,0,*7F
1499576856.19,22174,16.88,74118.8,4.93,2.01,1.63,0,*76
1499576857.43,22175,16.94,74122.0,4.91,1.89,1.59,0,*7F
1499576858.63,22176,16.94,74120.8,4.91,1.83,1.41,0,*7F
1499576859.87,22177,16.94,74126.8,4.91,1.97,1.59,0,*72
1499576861.09,22178,16.94,74130.0,4.89,1.97,1.55,0,*78
1499576862.31,22179,16.88,74124.8,4.89,1.93,1.43,0,*7A
1499576863.53,22180,16.88,74120.0,4.91,1.97,1.41,0,*73
1499576864.78,22181,16.88,74120.5,4.91,2.01,1.51,0,*7F
1499576866.0,22182,16.88,74122.3,4.89,1.97,1.55,0,*7D
1499576867.22,22183,16.88,74120.3,4.89,2.09,1.97,0,*76
1499576868.44,22184,16.88,74122.8,4.91,1.83,1.51,0,*73
1499576869.67,22185,16.94,74126.3,4.89,1.25,1.25,0,*74
1499576870.91,22186,16.94,74126.3,4.91,1.59,1.51,0,*76
1499576872.14,22187,16.88,74122.0,4.89,1.37,1.09,0,*7B
1499576873.37,22188,16.94,74126.0,4.89,1.71,1.33,0,*7F
1499576874.56,22189,16.88,74124.8,4.89,1.79,0.87,0,*48
1499576875.78,22190,16.94,74124.3,4.89,1.67,0.25,0,*47
1499576877.0,22191,16.94,74124.3,4.91,0.97,-0.93,0,*51
1499576878.19,22192,16.94,74124.3,4.89,0.63,-1.59,0,*67
1499576879.4,22193,16.94,74120.8,4.89,-0.11,-2.51,0,*45
1499576880.62,22194,16.88,74122.3,4.89,-0.45,-2.51,0,*43
1499576881.8,22195,16.94,74126.8,4.89,-0.73,-2.39,0,*49
1499576883.01,22196,16.94,74126.3,4.89,-1.09,-1.75,0,*7D
1499576884.19,22197,16.88,74120.3,4.89,-1.51,-1.59,0,*7F
1499576885.4,22198,16.88,74120.8,4.87,-1.63,-1.63,0,*76
1499576886.67,22199,16.88,74118.5,4.87,-1.39,-1.43,0,*7A
1499576887.9,22200,16.88,74114.5,4.87,-1.25,-0.93,0,*48
1499576889.16,22201,16.88,74116.5,4.87,-0.89,-0.27,0,*71
1499576890.33,22202,16.94,74116.5,4.85,-0.57,0.09,0,*62
1499576891.52,22203,16.94,74118.5,4.89,-0.49,0.13,0,*5B
1499576892.73,22204,16.94,74122.0,4.87,-0.77,-0.19,0,*78
1499576893.94,22205,16.88,74120.0,4.87,-0.53,-0.15,0,*73
1499576895.12,22206,16.88,74120.5,4.85,-0.41,-0.29,0,*7E
1499576896.36,22207,16.94,74122.0,4.87,0.47,0.33,0,*70
1499576897.6,22208,16.94,74118.3,4.87,0.95,0.29,0,*7B
1499576898.78,22209,16.94,74112.0,4.89,1.05,-0.15,0,*6E
1499576900.0,22210,16.88,74114.8,4.87,0.33,-1.33,0,*69
1499576901.23,22211,16.94,74114.3,4.87,-0.29,-2.03,0,*4E
1499576902.42,22212,16.94,74110.3,4.89,-0.73,-2.23,0,*4E
1499576903.66,22213,16.94,74114.8,4.87,-1.13,-1.63,0,*71
1499576904.92,22214,16.88,74112.3,4.87,-1.13,-0.93,0,*48
1499576906.13,22215,16.94,74118.5,4.87,-1.51,-0.37,0,*41
1499576907.35,22216,16.94,74112.8,4.87,-1.51,0.17,0,*6D
1499576908.58,22217,16.88,74112.5,4.87,-0.81,0.83,0,*5D
1499576909.8,22218,16.88,74110.3,4.87,-0.03,1.29,0,*59
1499576911.04,22219,16.88,74106.8,4.91,0.13,1.09,0,*41
1499576912.25,22220,16.88,74108.0,4.89,0.41,1.33,0,*4C
1499576913.46,22221,16.88,74108.8,4.91,0.43,1.29,0,*4D
1499576914.68,22222,16.88,74116.8,4.89,0.87,1.47,0,*47
1499576915.89,22223,16.94,74122.3,4.89,0.63,1.09,0,*46
1499576917.09,22224,16.94,74118.3,4.89,0.97,1.13,0,*41
1499576918.33,22225,16.88,74112.5,4.87,0.91,0.95,0,*77
1499576919.55,22226,16.94,74110.8,4.87,1.41,1.43,0,*72
1499576920.82,22227,16.94,74114.3,4.87,1.33,1.33,0,*71
1499576922.04,22228,16.94,74116.0,4.89,1.37,1.47,0,*77
1499576923.28,22229,16.88,74116.0,4.89,1.37,1.37,0,*71
1499576924.51,22230,16.94,74116.3,4.89,1.37,1.37,0,*79
1499576925.71,22231,16.88,74116.5,4.89,1.05,1.33,0,*7D
1499576926.95,22232,16.94,74116.8,4.91,0.75,1.25,0,*46
1499576928.15,22233,16.94,74116.8,4.89,0.63,1.43,0,*49
1499576929.36,22234,16.88,74112.0,4.89,0.47,1.71,0,*49
1499576930.6,22235,16.94,74118.8,4.91,0.67,2.21,0,*45